This is the latest recevied weather packets stored in our database for station/object IW4ENL-7. If no packets are shown the sender has not sent any weather packets the latest 1 day(s).
| Time | Temp. | Humidity | Pressure | Rain* | Wind** | Luminosity | Snow |
|---|---|---|---|---|---|---|---|
| 1777998793 | 12.22° C | 60% | 960 hPa | - | 0.89 m/s, 45° | - | - |
| 1777998610 | 12.22° C | 60% | 960 hPa | - | 0.89 m/s, 45° | - | - |
| 1777998061 | 12.22° C | 60% | 960 hPa | - | 0.89 m/s, 45° | - | - |
| 1777997878 | 12.22° C | 60% | 961 hPa | - | 0.89 m/s, 45° | - | - |
| 1777997695 | 12.22° C | 60% | 961 hPa | - | 0.89 m/s, 8° | - | - |
| 1777997513 | 12.78° C | 60% | 961 hPa | - | 0.45 m/s, 76° | - | - |
| 1777997330 | 12.78° C | 59% | 961 hPa | - | 0.45 m/s, 60° | - | - |
| 1777997147 | 12.78° C | 59% | 961 hPa | - | 0.89 m/s, 49° | - | - |
| 1777996964 | 12.78° C | 60% | 961 hPa | - | 0 m/s | - | - |
| 1777996781 | 12.22° C | 60% | 961 hPa | - | 0.89 m/s, 23° | - | - |
| 1777996126 | 12.78° C | 60% | 961 hPa | - | 0.89 m/s, 6° | - | - |
| 1777995943 | 12.22° C | 60% | 961 hPa | - | 0.45 m/s, 45° | - | - |
| 1777995760 | 12.22° C | 60% | 961 hPa | - | 1.34 m/s, 17° | - | - |
| 1777995394 | 12.22° C | 60% | 961 hPa | - | 0.45 m/s, 4° | - | - |
| 1777995211 | 12.22° C | 60% | 961 hPa | - | 0.89 m/s, 27° | - | - |
| 1777995029 | 12.22° C | 60% | 961 hPa | - | 1.34 m/s, 40° | - | - |
| 1777994846 | 12.22° C | 60% | 961 hPa | - | 0 m/s | - | - |
| 1777994480 | 12.78° C | 60% | 961 hPa | - | 1.34 m/s, 8° | - | - |
| 1777994297 | 12.78° C | 60% | 961 hPa | - | 0.89 m/s, 35° | - | - |
| 1777994115 | 12.78° C | 60% | 961 hPa | - | 0 m/s | - | - |
| 1777993749 | 12.78° C | 60% | 961 hPa | - | 0.45 m/s, 343° | - | - |
| 1777993566 | 12.78° C | 60% | 961 hPa | - | 0.45 m/s, 351° | - | - |
| 1777993383 | 12.78° C | 60% | 961 hPa | - | 0 m/s | - | - |
| 1777993017 | 12.78° C | 60% | 961 hPa | - | 0.45 m/s, 325° | - | - |
| 1777992835 | 12.78° C | 61% | 961 hPa | - | 0 m/s | - | - |
* Rain since midnight (hover to see other rain measurements)
** Current wind speed in m/s (hover to see current wind gust speed)